カタログに戻る

STARLINK-31489

運用中通信VLEO
NORAD 59300·PAYLOAD·🇺🇸 United States

打ち上げ Mar 24, 2024 から Cape Canaveral Space Force Station

Loading…

次のパス (今後24時間)

TLE

最新Source: CelesTrak SupGP

元期: Sep 14, 2026, 22:23 UTC

1 59300C 24056E   26257.93312500  .00028743  00000+0  10411-2 0  2578
2 59300  43.0009 241.7403 0001437 263.6577 298.9517 15.27563643    11

AllMySatでSTARLINK-31489をリアルタイム追跡

Download on the App Store